St. Cloud, MN

7:34 AM CDT on April 23, 2018 (GMT -0500)
Saint Cloud Regional

Weather History for KSTC - September, 2013

Change the Weather History Date:

Sunday, September 1, 2013

  Actual Average Record
Temperature  
Mean Temperature 61 °F 64 °F  
Max Temperature 70 °F 76 °F 92 °F (1937)
Min Temperature 51 °F 53 °F 29 °F (1974)
Degree Days  
Heating Degree Days 4 3  
Month to date heating degree days 4 3  
Since 1 July heating degree days 53 61  
Cooling Degree Days 0 2  
Month to date cooling degree days 0 2  
Year to date cooling degree days 504 431  
Growing Degree Days 12 (Base 50)    
Moisture  
Dew Point 56 °F    
Average Humidity 76    
Maximum Humidity 90    
Minimum Humidity 61    
Precipitation  
Precipitation 0.00 in 0.14 in 1.18 in (1934)
Month to date precipitation 0.00 0.14  
Year to date precipitation 20.33 19.72  
Snow  
Snow 0.00 in 0.00 in 0.00 in ()
Month to date snowfall 0.0 0.0  
Since 1 July snowfall 0.0 0.0  
Since 1 September snowfall 0.0 0.0  
Snow Depth 0.00 in    
Sea Level Pressure  
Sea Level Pressure 29.89 in    
Wind  
Wind Speed 10 mph (NW)    
Max Wind Speed 21 mph    
Max Gust Speed 26 mph    
Visibility 10 miles    
Events      
T = Trace of Precipitation, MM = Missing Value Source: NWS Daily Summary

Daily Weather History Graph

Daily Weather History Graph

Search for Another Location

Airport or City:

Astronomy

Sep. 01, 2013 Rise Set
Actual Time 6:37 AM CDT 7:53 PM CDT
Civil Twilight 6:07 AM CDT 8:24 PM CDT
Nautical Twilight 5:30 AM CDT 9:00 PM CDT
Astronomical Twilight 4:51 AM CDT 9:39 PM CDT
Moon 2:53 AM CDT (9/1) 5:37 PM CDT (9/1)
Length of Visible Light 14h 16m
Length of Day
13h 15m
Waning Crescent, 13% of the Moon is Illuminated
Sep 1
Waning Crescent
Sep 5
New
Sep 12
First Quarter
Sep 19
Full
Sep 26
Last Quarter

Hourly Weather History & Observations

Time (CDT) Temp. Dew Point Humidity Pressure Visibility Wind Dir Wind Speed Gust Speed Precip Events Conditions
12:53 AM 68.0 °F 62.1 °F 81% 29.79 in 10.0 mi West 11.5 mph - N/A   Mostly Cloudy
1:53 AM 66.9 °F 62.1 °F 84% 29.77 in 10.0 mi West 9.2 mph - N/A   Clear
2:53 AM 66.0 °F 61.0 °F 84% 29.78 in 10.0 mi WNW 12.7 mph - N/A   Clear
3:53 AM 64.0 °F 57.9 °F 80% 29.80 in 10.0 mi NW 12.7 mph 18.4 mph N/A   Clear
4:53 AM 62.1 °F 57.0 °F 84% 29.81 in 10.0 mi NW 11.5 mph - N/A   Clear
5:44 AM 62.6 °F 57.2 °F 82% 29.82 in 10.0 mi NW 13.8 mph - N/A   Mostly Cloudy
5:53 AM 62.1 °F 57.0 °F 84% 29.83 in 10.0 mi NNW 13.8 mph 23.0 mph N/A   Overcast
6:19 AM 62.6 °F 57.2 °F 82% 29.82 in 10.0 mi NW 9.2 mph - N/A   Overcast
6:53 AM 61.0 °F 57.9 °F 90% 29.84 in 10.0 mi NW 6.9 mph - N/A   Mostly Cloudy
7:13 AM 60.8 °F 57.2 °F 88% 29.82 in 10.0 mi NW 6.9 mph - N/A   Scattered Clouds
7:53 AM 63.0 °F 59.0 °F 87% 29.86 in 10.0 mi NW 10.4 mph - N/A   Clear
8:13 AM 64.4 °F 59.0 °F 83% 29.84 in 10.0 mi WNW 12.7 mph - N/A   Mostly Cloudy
8:53 AM 66.0 °F 57.9 °F 75% 29.87 in 10.0 mi WNW 11.5 mph - N/A   Overcast
9:53 AM 66.9 °F 57.9 °F 73% 29.88 in 10.0 mi NW 13.8 mph - N/A   Overcast
10:33 AM 68.0 °F 55.4 °F 64% 29.87 in 10.0 mi NW 16.1 mph 21.9 mph N/A   Overcast
10:53 AM 66.9 °F 55.9 °F 68% 29.90 in 10.0 mi NW 13.8 mph 23.0 mph N/A   Overcast
11:53 AM 68.0 °F 57.0 °F 68% 29.91 in 10.0 mi NW 18.4 mph - N/A   Overcast
12:35 PM 69.8 °F 57.2 °F 64% 29.90 in 10.0 mi NW 15.0 mph - N/A   Overcast
12:53 PM 68.0 °F 55.9 °F 65% 29.92 in 10.0 mi NW 17.3 mph 26.5 mph N/A   Overcast
1:53 PM 70.0 °F 55.9 °F 61% 29.93 in 10.0 mi NNW 11.5 mph 18.4 mph N/A   Overcast
2:16 PM 69.8 °F 55.4 °F 60% 29.91 in 10.0 mi NW 13.8 mph - N/A   Overcast
2:53 PM 69.1 °F 55.9 °F 63% 29.93 in 10.0 mi NNW 12.7 mph - N/A   Overcast
3:04 PM 68.0 °F 55.4 °F 64% 29.92 in 10.0 mi NNW 9.2 mph 19.6 mph N/A   Overcast
3:53 PM 68.0 °F 55.9 °F 65% 29.94 in 10.0 mi NW 11.5 mph - N/A   Overcast
4:10 PM 69.8 °F 55.4 °F 60% 29.92 in 10.0 mi NNW 11.5 mph 18.4 mph N/A   Overcast
4:53 PM 70.0 °F 55.0 °F 59% 29.94 in 10.0 mi NNW 10.4 mph 18.4 mph N/A   Overcast
5:53 PM 70.0 °F 55.9 °F 61% 29.95 in 10.0 mi NNW 11.5 mph 18.4 mph N/A   Mostly Cloudy
6:53 PM 68.0 °F 55.0 °F 63% 29.96 in 10.0 mi North 8.1 mph - N/A   Mostly Cloudy
7:53 PM 64.9 °F 53.1 °F 65% 29.97 in 10.0 mi NNW 6.9 mph - N/A   Clear
8:53 PM 61.0 °F 52.0 °F 72% 30.00 in 10.0 mi North 6.9 mph - N/A   Clear
9:53 PM 57.9 °F 51.1 °F 78% 30.01 in 10.0 mi North 6.9 mph - N/A   Clear
10:53 PM 55.0 °F 50.0 °F 83% 30.04 in 10.0 mi North 3.5 mph - N/A   Clear
11:53 PM 53.1 °F 50.0 °F 89% 30.04 in 10.0 mi North 3.5 mph - N/A   Clear